Pagina principale
METAR-TAF:

METAR-TAF

Aeroporti :

Paganella, Italia

latitudine: 46-09N, longitudine: 011-02E, altezza: 2125 m

Osservazione

Il bollettino è stato emesso 22 minuti fa, alle 17:55 UTC
Vento 2 kt da nord-est
Temperature -3°C
Umidità 39%
Pressione 1011 hPa
Visibilità 10 km o più
nessuna nube inferiore a 1500 m e nessun cumulonembo

METAR: LIVP 061755Z 05002KT CAVOK M03/M15 Q1011

Ora: 19:17 (18:17 UTC)


TAF: mancante

Osservazioni e previsioni meteorologiche di più di 4000 aeroporti (messaggi METAR e TAF).

Le stazioni disponibili sono rappresentate dai dischi gialli e rossi sulla carta.

Puntare il mouse per vedere il nome della stazione.

Clicca sopra per visualizzare le osservazioni e previsioni meteorologiche.

Per cambiare la mappa : fare clic sui pulsanti verdi con una croce nera per ingrandire, il pulsante verde con un trattino per diminuire, o sulla freccia verde per le mappe adiacenti.


METAR-TAF: